Theta_e
342 344 346 347 347 346 346 345 346 347 348 346 347 346 346 345 345 345 344 343 343 343 342 341 341 341 341 341 340 338 336 336 336 334 333 330 327 323 321 321 320 321 323 324 325 325 326 326 323 321 320 319
336 340 344 344 344 344 344 346 346 346 347 347 346 345 343 341 342 343 344 344 343 342 342 342 341 341 341 339 338 337 335 335 334 333 332 329 325 322 319 318 318 319 320 322 323 324 326 323 321 319 318 315
334 334 337 340 340 342 342 342 343 345 342 342 341 338 335 335 336 337 338 341 341 339 338 337 339 340 340 339 338 337 336 335 334 333 331 328 325 321 318 316 317 318 318 320 321 323 322 319 317 315 311 309
338 330 331 335 337 339 340 340 340 338 336 335 332 331 330 329 330 328 330 328 333 334 334 333 332 337 339 339 338 336 335 334 333 332 331 329 326 323 320 317 317 318 319 319 321 322 318 316 313 304 303 303
339 335 330 330 331 332 335 335 336 335 327 324 324 325 324 326 334 334 331 331 333 326 330 324 327 337 338 339 338 337 335 334 332 332 331 329 326 324 321 320 318 317 319 319 320 319 315 311 304 303 301 301
338 336 334 336 337 337 334 329 328 330 333 329 329 322 325 334 335 335 333 334 331 332 327 327 325 327 335 337 335 335 335 333 332 331 330 330 327 324 322 316 305 305 312 316 316 314 311 303 301 302 301 299
332 338 336 335 338 337 330 331 332 335 334 336 335 333 333 333 335 334 335 335 332 333 324 328 321 326 332 335 333 333 335 333 332 331 331 330 329 325 322 311 308 305 303 303 309 306 302 300 300 302 301 300
330 333 337 338 336 336 335 334 335 332 334 333 334 336 334 331 330 332 334 330 326 329 329 324 321 325 328 329 328 327 330 332 333 333 331 330 327 321 317 312 311 309 306 304 304 303 299 299 300 301 301 299
327 328 334 337 338 336 335 335 334 333 334 335 335 332 332 332 332 332 331 331 331 332 330 329 329 329 331 332 331 324 328 326 327 327 325 322 316 315 315 313 313 312 309 308 308 307 304 301 300 300 301 300
327 327 329 331 333 335 334 334 334 335 335 335 334 334 332 331 331 332 331 330 331 331 332 332 331 330 328 327 327 328 327 325 325 327 325 322 320 318 315 314 313 311 310 309 308 308 307 304 301 300 298 299
326 327 331 331 331 332 333 334 332 331 330 330 330 331 330 331 330 329 329 331 331 329 331 331 331 330 330 328 328 326 326 327 327 326 324 322 320 318 316 313 311 311 310 309 310 309 307 305 304 301 300 300
326 329 329 327 327 328 327 328 328 328 328 328 327 327 326 326 328 327 329 329 329 327 328 329 331 330 330 329 328 327 328 327 325 325 324 322 321 319 315 313 311 311 311 310 309 309 307 305 305 303 303 304
329 329 327 326 325 325 323 325 324 324 325 325 325 325 325 325 327 329 329 327 326 326 325 325 325 325 325 325 326 328 326 325 324 323 323 322 320 319 317 315 314 311 311 311 311 309 309 307 306 305 305 304
326 326 326 325 324 323 322 322 322 322 322 323 324 324 325 325 326 328 329 328 327 325 323 322 322 322 322 322 322 323 322 323 322 321 320 320 319 317 317 317 315 312 310 311 310 309 309 308 308 306 304 303
321 322 322 322 322 321 320 319 318 317 317 319 321 323 323 323 323 325 326 326 325 324 322 321 320 320 321 320 320 321 319 319 319 319 319 318 318 318 317 316 315 315 312 310 311 309 309 308 309 307 305 303
316 316 317 316 316 315 315 315 315 314 314 314 316 319 321 321 321 321 321 321 321 321 320 319 319 319 319 319 320 321 320 319 318 318 317 317 317 317 317 316 315 317 315 311 309 311 310 309 309 305 304 303
312 311 311 311 311 311 311 310 310 311 311 311 312 314 317 319 320 320 319 318 317 317 318 318 318 318 318 319 319 319 319 318 318 317 317 317 316 315 314 313 312 314 313 314 312 312 311 311 310 307 305 303
309 309 309 308 308 308 308 307 307 307 308 308 308 310 313 315 316 318 319 317 316 315 313 313 313 313 314 315 316 315 315 314 314 313 314 315 313 310 309 308 308 309 309 310 312 312 312 310 309 305 304 303
307 307 307 306 306 306 306 305 305 306 306 306 306 307 308 311 313 313 314 314 313 312 310 309 309 309 310 310 311 311 311 310 308 307 307 309 307 305 304 304 304 305 306 308 310 311 311 308 306 304 303 302
305 305 305 305 305 304 304 303 303 303 303 304 304 304 305 307 310 311 311 311 310 308 308 308 308 309 309 308 308 308 307 305 304 303 303 303 304 302 301 301 301 302 303 305 307 308 309 304 303 303 303 302
304 303 303 303 302 302 302 301 301 300 300 301 301 301 301 302 303 306 308 307 306 305 305 305 306 307 308 308 308 308 308 306 304 303 302 301 301 301 299 300 299 300 301 303 305 306 303 303 303 302 301 299
302 302 302 301 301 300 299 299 299 299 299 299 299 299 299 300 300 302 303 303 302 302 302 301 301 301 302 303 303 303 304 304 305 304 303 299 299 298 298 296 296 296 297 300 303 303 302 301 300 299 298 296
301 301 300 300 299 298 297 297 297 297 297 297 298 298 297 298 298 299 300 300 300 300 299 299 299 299 299 299 299 299 299 299 299 298 297 295 294 294 293 292 292 293 294 297 300 300 298 298 297 297 296 295
301 300 299 298 297 296 296 296 296 296 296 296 296 296 296 296 297 297 298 298 298 298 297 297 297 296 297 297 296 296 295 295 296 294 292 292 290 289 289 290 290 291 295 298 298 296 296 296 297 296 295 294
301 299 298 297 296 294 294 294 294 294 294 294 294 294 294 294 294 295 295 295 296 295 295 294 294 294 293 293 293 292 292 292 293 294 293 291 290 288 288 288 289 289 293 297 294 294 293 293 293 295 295 294
300 300 298 295 293 293 293 293 292 291 291 292 292 291 291 292 292 292 292 292 292 292 291 290 290 290 290 290 290 290 290 290 291 290 291 291 289 288 287 286 287 289 289 290 290 290 290 289 290 290 290 291
297 297 296 294 292 292 291 291 290 289 289 289 289 289 289 290 290 290 290 290 290 290 289 288 288 288 288 288 289 289 288 288 288 288 288 289 289 286 287 287 288 287 288 286 288 290 290 289 288 290 286 286
295 295 294 294 292 291 290 288 289 288 288 288 288 287 288 288 288 289 288 288 288 288 288 288 287 287 287 287 287 288 287 287 286 287 287 287 287 287 285 284 285 286 286 287 286 287 288 287 283 278 279 283
294 293 292 291 291 290 289 288 287 286 285 286 287 286 286 286 287 288 288 288 288 288 287 287 287 287 286 286 286 287 286 286 286 285 285 286 286 285 283 283 283 285 286 285 287 286 281 279 280 280 280 281
294 292 291 289 288 287 286 285 285 284 284 284 284 285 285 286 286 286 286 286 287 287 286 286 286 285 285 285 285 285 285 285 285 285 285 285 285 285 284 283 282 282 285 285 286 285 285 284 279 280 282 279
293 292 291 290 288 287 286 284 284 284 284 284 284 285 284 285 285 285 285 285 285 285 285 285 285 285 285 284 284 285 284 284 284 284 285 285 285 284 286 284 282 282 282 282 284 285 284 284 285 286 282 281
Wind_Speed
7 6 6 7 6 6 6 5 4 6 7 9 9 10 9 8 8 7 7 7 8 9 8 8 10 11 11 12 12 11 11 12 12 12 12 12 11 11 11 11 11 11 12 12 12 12 10 10 12 12 9 7
7 7 7 6 6 6 5 4 4 5 7 8 9 9 9 8 8 8 8 8 9 9 7 6 7 9 10 12 12 11 10 11 11 11 12 11 11 11 11 11 11 11 11 12 12 11 10 10 11 11 10 6
5 9 8 8 8 7 7 4 4 5 7 8 9 9 8 8 7 8 8 8 9 9 8 7 7 8 8 10 11 10 10 11 10 10 10 10 11 11 11 10 10 10 10 10 10 10 9 11 11 11 8 5
4 7 10 9 9 10 8 7 7 6 5 8 8 8 9 9 8 8 7 10 8 9 9 8 6 8 9 10 10 9 10 10 10 9 9 9 9 10 10 10 9 8 9 10 10 8 9 10 10 7 6 5
5 6 9 8 9 10 10 9 9 8 7 6 6 7 7 7 6 5 5 6 6 8 6 8 8 8 8 9 8 7 9 9 8 8 8 7 7 8 7 6 6 7 8 10 9 9 9 9 7 6 6 6
1 3 6 5 5 5 7 7 7 7 6 5 4 5 5 3 3 3 3 4 6 5 6 6 8 8 9 9 9 7 8 8 6 6 6 6 6 6 5 5 4 4 7 9 9 9 10 7 6 6 6 6
3 3 3 3 4 3 4 5 4 3 4 3 4 4 3 2 2 2 3 5 5 5 7 7 8 8 8 9 10 8 8 7 6 6 5 5 4 3 3 3 4 5 5 6 8 8 7 6 7 5 5 5
3 0 2 4 4 4 3 3 3 3 3 3 3 3 3 3 2 4 3 5 8 7 5 5 6 7 8 9 9 9 6 7 6 6 6 5 5 4 3 4 5 6 5 6 6 7 6 6 6 6 4 5
2 2 4 4 5 5 4 4 3 2 2 3 3 3 2 2 3 4 3 4 4 4 4 4 3 3 3 4 5 7 4 5 5 5 3 3 2 3 4 5 5 5 6 6 5 6 6 6 5 5 5 4
4 2 1 3 3 4 4 5 5 5 5 5 4 4 3 3 3 3 4 3 4 5 3 4 3 3 3 3 3 3 4 2 2 3 3 2 5 5 5 5 4 4 6 5 5 5 5 6 4 5 5 4
3 4 5 5 5 7 6 6 7 6 6 6 6 6 5 4 4 4 5 5 4 4 4 4 3 4 4 4 5 2 2 2 2 2 4 4 4 5 5 4 4 5 4 4 4 4 4 4 4 4 5 5
4 5 6 7 8 7 6 7 7 6 5 6 7 6 5 4 4 3 5 5 5 4 5 4 3 2 2 2 3 3 4 5 3 5 3 2 3 4 3 4 4 5 5 4 4 5 4 4 5 4 6 6
5 5 6 7 8 7 6 7 6 6 7 7 6 6 6 5 5 5 5 5 5 4 5 5 5 6 5 5 4 4 4 5 3 5 4 5 5 5 5 5 5 4 4 4 5 6 5 4 5 5 6 6
6 5 8 8 8 7 8 7 7 7 7 5 6 6 6 6 5 5 5 6 5 7 7 6 6 6 6 6 4 5 6 4 5 5 5 5 5 5 5 5 3 5 5 4 4 5 6 5 5 5 5 6
7 6 8 8 7 7 8 7 7 7 6 6 6 5 6 6 7 6 6 6 6 7 6 6 6 6 5 6 4 5 6 5 5 5 5 4 4 5 5 4 3 4 5 4 4 4 5 5 6 6 6 6
8 8 8 9 8 8 8 7 7 7 6 6 6 5 6 7 7 7 7 7 7 7 7 6 6 5 6 5 5 5 5 6 5 5 4 5 4 6 5 5 6 5 4 4 3 5 5 4 6 6 6 7
7 7 8 8 8 7 7 7 7 7 7 6 6 6 7 6 7 7 7 7 8 6 6 7 6 7 6 5 5 5 5 6 5 6 6 8 7 6 6 6 6 5 5 5 4 5 4 5 6 6 7 7
8 7 8 7 8 7 8 7 7 7 6 6 5 5 7 7 7 7 7 7 7 6 6 7 7 7 7 6 6 6 6 6 6 6 7 6 6 7 6 6 5 5 6 4 5 6 5 7 6 7 8 7
10 7 7 7 8 7 7 7 7 6 6 5 5 6 7 7 7 8 7 7 7 7 6 7 7 8 6 6 6 7 6 6 6 7 8 5 7 6 6 5 6 5 4 5 5 5 6 6 6 7 7 8
9 7 7 8 8 7 9 8 7 6 5 5 6 7 7 7 7 8 9 8 7 7 6 7 8 6 6 5 6 7 7 7 7 7 7 7 6 7 6 6 6 5 5 4 5 5 6 6 6 7 8 8
9 8 9 9 8 9 10 8 7 6 5 6 7 6 7 7 7 7 8 7 5 7 7 7 7 6 6 5 6 6 6 7 6 7 7 8 7 6 5 6 5 5 5 4 5 5 6 6 7 8 7 8
10 9 9 8 8 9 10 8 6 6 6 6 6 7 7 6 7 7 8 7 6 8 8 7 8 7 7 7 7 7 7 7 6 7 7 8 8 7 6 6 6 5 4 4 4 6 7 8 8 8 8 7
10 10 9 8 9 10 9 7 7 6 6 6 7 7 6 7 7 7 8 7 7 8 8 8 8 8 7 7 7 8 8 8 8 8 8 8 7 6 6 5 4 3 3 4 5 7 7 8 8 7 7 7
8 7 8 10 9 9 8 7 7 6 6 6 7 6 7 7 7 8 8 8 8 9 8 9 8 9 8 7 8 9 9 7 7 7 8 8 6 6 7 8 6 6 5 8 8 7 8 7 7 7 7 7
7 8 8 8 7 9 6 7 7 7 6 7 6 7 7 7 7 8 8 7 8 9 9 8 8 9 8 7 9 9 8 6 7 5 5 5 7 9 11 11 9 7 3 8 7 7 7 8 6 7 7 6
5 5 6 8 7 8 6 6 7 7 6 6 6 7 7 7 7 8 8 7 8 9 9 9 8 8 7 7 8 8 7 8 8 8 7 4 8 6 10 8 8 9 3 5 4 7 4 6 6 5 7 7
7 7 6 9 6 8 8 5 5 7 5 5 7 7 7 7 7 8 8 7 8 9 8 9 9 8 7 7 6 9 10 9 9 7 7 7 6 6 5 7 7 10 7 3 1 1 5 2 2 2 6 4
7 9 9 10 10 7 9 8 6 8 6 6 8 9 7 7 7 8 8 8 8 8 8 9 9 7 8 8 7 9 10 10 9 9 8 8 7 5 9 7 8 7 8 6 2 2 1 1 2 2 2 3
10 11 10 10 10 10 11 7 6 8 7 6 6 7 8 7 6 7 8 7 7 8 9 8 8 9 8 9 7 8 10 9 8 7 6 7 8 7 6 7 5 8 8 10 6 3 3 3 4 0 2 3
10 10 11 10 10 9 9 7 7 8 8 6 7 7 4 7 6 6 7 7 8 8 8 9 9 8 9 9 8 9 8 7 8 8 9 6 6 8 6 7 7 6 6 7 9 8 4 2 2 0 2 3
9 9 9 9 8 8 9 10 5 4 4 7 6 6 7 6 6 6 9 8 8 8 9 9 9 9 9 9 8 7 9 9 8 7 6 6 8 6 5 7 8 7 4 4 7 7 6 8 5 2 2 1
Wind_Direction
119 128 130 138 141 141 131 152 125 145 138 132 126 122 121 123 123 123 115 110 115 119 116 111 103 108 110 107 99 91 84 79 78 76 73 66 61 59 57 53 51 51 49 45 40 38 36 41 55 62 65 66
131 138 142 137 133 126 124 138 135 129 140 137 131 125 128 130 132 133 129 122 119 118 109 93 99 114 117 109 105 99 92 86 82 79 76 70 65 62 58 56 53 52 50 43 35 32 27 42 54 63 67 66
154 151 150 142 143 141 152 131 126 118 130 132 133 132 133 132 133 132 132 127 120 124 122 111 109 115 110 112 111 109 98 90 87 85 83 80 75 72 65 59 57 56 52 46 42 35 34 45 52 54 56 57
170 161 149 149 153 154 151 140 134 125 128 132 130 133 137 136 130 131 133 131 123 124 120 114 121 123 123 121 117 109 99 94 96 95 94 95 91 84 78 67 56 50 50 50 49 49 50 51 56 57 57 54
174 173 150 149 158 159 154 153 150 145 134 123 124 133 140 139 141 143 137 141 138 130 123 132 132 131 127 119 114 111 105 98 100 105 105 108 105 95 87 77 58 39 35 36 35 43 44 52 61 66 64 57
92 161 168 152 150 161 160 162 158 150 148 146 140 138 144 155 150 146 152 140 145 141 134 138 137 127 129 125 127 122 113 113 104 100 99 96 103 97 88 65 53 45 32 27 29 31 34 44 56 60 67 60
32 159 169 156 161 148 158 155 163 149 147 163 150 152 167 152 135 178 168 153 162 154 143 136 140 137 138 134 137 135 127 125 124 107 95 80 78 80 53 28 20 35 34 33 31 28 30 39 53 59 59 59
359 171 210 168 161 154 153 143 151 160 153 163 143 162 160 171 175 168 168 158 152 125 122 123 136 148 141 140 144 140 134 141 141 128 113 81 57 43 61 69 56 62 50 41 37 33 33 38 41 55 55 58
305 295 196 185 165 158 157 148 149 134 116 135 132 132 137 106 100 114 125 117 116 104 112 132 117 134 144 150 146 147 149 153 143 125 115 104 74 95 81 63 60 67 60 47 40 36 35 41 38 49 56 55
285 340 72 132 132 124 97 100 76 67 60 47 46 44 51 81 96 116 111 90 97 111 125 122 128 131 136 143 155 160 141 151 130 114 124 126 127 112 94 87 80 80 89 72 49 45 45 50 48 41 58 68
318 13 50 76 79 91 79 78 74 65 63 56 57 53 41 60 68 74 112 120 105 114 130 129 143 158 162 157 156 150 103 83 67 67 106 134 128 111 104 96 85 79 78 80 70 52 47 51 60 52 44 68
26 73 81 79 80 78 84 79 76 71 70 63 52 45 37 52 68 73 99 104 99 87 83 84 84 98 104 88 123 126 111 107 87 95 87 97 80 85 82 83 68 73 75 68 68 60 40 33 49 50 44 58
89 88 87 81 78 76 73 71 67 66 57 55 49 42 38 32 57 58 79 78 82 79 81 82 77 76 65 58 62 94 88 99 96 73 68 68 68 70 75 69 71 85 76 74 71 69 49 43 41 41 50 56
86 89 89 82 79 82 72 70 68 62 61 53 54 47 42 42 55 66 82 86 79 80 65 64 64 65 66 68 56 66 75 65 77 70 66 68 66 69 67 64 64 93 87 79 80 73 71 56 57 55 56 48
86 84 85 82 82 78 77 77 72 67 63 56 51 52 52 54 50 59 64 75 77 78 76 66 66 60 61 66 56 74 84 74 85 81 75 69 78 69 61 51 43 85 97 89 76 76 77 72 62 60 54 52
81 78 85 85 81 76 77 74 71 70 62 54 45 36 55 59 60 65 66 70 69 75 80 73 69 65 61 61 61 65 76 75 68 71 71 67 52 66 63 52 38 36 68 55 69 84 80 72 70 66 60 55
85 80 80 84 81 81 78 71 69 66 59 56 44 46 50 54 67 71 76 72 75 70 78 74 68 61 54 45 51 57 64 70 64 61 56 48 43 38 40 39 33 27 40 40 23 55 57 64 64 66 60 59
84 78 79 81 82 78 77 74 71 64 62 55 47 51 57 57 55 67 77 82 78 74 71 70 64 61 49 36 49 58 53 60 54 57 54 52 57 43 44 41 29 38 35 8 39 47 43 57 67 66 65 66
82 73 83 88 82 79 84 75 71 66 62 59 53 56 54 56 63 65 71 72 82 78 76 77 73 64 64 65 62 65 56 68 63 66 62 50 63 54 44 41 38 38 44 32 29 32 41 67 68 68 73 64
85 87 92 86 86 88 79 74 69 60 55 57 54 53 55 49 63 72 75 73 74 82 77 80 78 74 73 73 77 73 70 70 70 70 68 50 53 59 38 37 30 28 30 26 37 34 68 76 75 77 71 67
91 94 86 87 89 85 79 75 70 60 53 56 57 49 53 46 54 59 65 67 67 82 75 69 70 59 57 49 61 65 67 69 68 73 70 56 44 52 53 37 28 22 20 19 26 67 82 77 75 73 72 67
105 98 96 92 87 83 79 74 69 63 57 59 62 54 53 53 58 61 66 67 69 78 76 75 73 64 55 57 59 62 57 55 53 60 67 69 50 41 44 38 26 7 360 24 40 73 79 70 73 75 78 77
107 106 98 91 86 78 77 72 64 60 62 60 63 57 53 58 59 61 63 64 65 75 74 71 67 65 55 57 62 63 60 56 58 62 58 66 59 51 54 54 29 5 338 54 73 68 62 76 77 82 84 81
113 113 107 99 92 83 76 78 76 63 64 63 64 56 57 59 63 62 63 63 67 73 74 74 69 69 60 59 67 66 62 54 55 65 66 58 62 52 48 40 23 23 47 78 71 70 63 61 72 68 76 76
132 120 106 92 96 98 91 89 84 73 64 67 63 60 60 62 65 66 67 63 69 76 77 75 74 73 65 66 71 73 71 67 63 54 67 75 58 54 51 31 15 12 35 95 69 59 68 62 55 64 62 61
114 108 123 122 116 107 97 93 92 85 66 73 67 61 62 66 68 70 70 70 75 75 80 83 77 72 73 72 76 83 80 69 60 55 46 39 65 45 63 49 21 9 62 37 108 105 74 62 50 51 55 52
112 107 114 116 121 114 100 71 84 93 87 78 78 65 61 65 69 74 71 72 75 79 77 81 81 76 76 71 83 79 66 62 56 53 53 46 70 62 50 73 35 33 37 114 50 136 95 120 100 356 9 2
101 103 99 98 107 94 101 114 96 86 75 72 76 64 60 55 66 71 75 71 76 81 77 81 84 85 76 71 67 81 79 66 61 52 49 51 47 66 65 33 38 38 35 59 87 44 116 173 110 2 334 352
116 108 103 104 98 100 93 77 87 86 65 65 77 81 61 57 60 72 77 74 77 85 86 83 86 85 82 79 69 75 76 72 69 67 64 61 65 51 97 62 43 27 34 43 33 125 65 6 35 175 258 351
128 128 129 128 125 121 115 111 106 107 120 103 88 90 91 67 62 76 80 77 79 79 83 80 79 81 81 76 71 70 79 81 70 57 58 48 72 64 45 101 64 40 14 40 43 46 67 122 160 294 292 80
133 133 135 130 123 122 125 124 98 101 102 109 103 100 89 87 71 68 82 73 75 77 79 82 78 80 80 79 78 77 77 70 69 67 62 56 63 62 65 66 74 56 341 2 30 26 42 51 46 72 89 355